Back to catalog

HULIANWANG DIGUI-128

AliveCommunicationsLEO
NORAD 67236·PAYLOAD·🇨🇳 China

Launched Dec 25, 2025 from Wenchang Space Launch Site

Loading…

Next Passes (next 24 hours)

TLE

FreshSource: Space-Track

Epoch: Sep 13, 2026, 21:34 UTC

1 67236U 25311A   26256.89871308 -.00000081  00000-0  93732-4 0  9999
2 67236  50.0077 157.4126 0000279 305.9772  54.1075 13.29326993 35144

Track HULIANWANG DIGUI-128 in real time with AllMySat

Download on the App Store